Location: Jawor
(51.0603°N, 16.1862°E)
Time: 02:00:14
(UTC+01:00)

ISS - Visible Passes

Search period start: 23 January 2019 00:00
Search period end: 02 February 2019 00:00
Orbit: 404 x 411 km, 51.6° (Epoch: 23 January)

Date Brightness Start Highest point End Pass type
(mag) Time Alt. Az. Time Alt. Az. Time Alt. Az.
23 Jan -1.7 18:39:39 10° SSW 18:41:04 18° S 18:41:04 18° S visible
24 Jan -1.7 17:49:17 10° S 17:51:07 14° SE 17:52:03 13° ESE visible
24 Jan -1.1 19:23:53 10° SW 19:24:46 17° SW 19:24:46 17° SW visible
25 Jan -3.0 18:32:45 10° SW 18:35:40 37° SSE 18:35:40 37° SSE visible
26 Jan -2.4 17:41:48 10° SSW 17:44:36 26° SSE 17:46:30 16° E visible
26 Jan -1.7 19:17:33 10° WSW 19:19:13 27° WSW 19:19:13 27° WSW visible
27 Jan -3.7 18:26:14 10° WSW 18:29:29 62° SSE 18:30:00 53° ESE visible
28 Jan -3.1 17:34:59 10° SW 17:38:09 44° SSE 17:40:44 14° E visible
28 Jan -2.3 19:11:17 10° W 19:13:26 37° W 19:13:26 37° W visible
29 Jan -3.9 18:19:51 10° WSW 18:23:09 88° S 18:24:08 43° E visible
29 Jan -0.4 19:56:27 10° W 19:56:51 13° W 19:56:51 13° W visible
30 Jan -3.7 17:28:28 10° WSW 17:31:45 71° SSE 17:34:49 12° E visible
30 Jan -2.9 19:05:01 10° W 19:07:31 48° WNW 19:07:31 48° WNW visible
31 Jan -3.8 18:13:33 10° W 18:16:51 79° N 18:18:11 33° E visible
31 Jan -0.7 19:50:08 10° W 19:50:54 16° W 19:50:54 16° W visible
01 Feb -3.8 17:22:04 10° W 17:25:23 86° N 17:28:42 10° E visible
01 Feb -3.5 18:58:40 10° W 19:01:34 65° W 19:01:34 65° W visible
